Location: Newark
(45.8667°N, 9.7333°E)
Time: 11:43:56
(UTC+00:00)

Tiros 1 despin weight - All Passes

Search period start: 22 January 2020 00:00
Search period end: 01 February 2020 00:00
Orbit: 594 x 643 km, 48.2° (Epoch: 21 January)

Date Brightness Start Highest point End Pass type
(mag) Time Alt. Az. Time Alt. Az. Time Alt. Az.
22 Jan - 10:34:17 10° S 10:36:59 16° SE 10:39:44 10° E daylight
22 Jan - 12:13:24 10° SW 12:17:52 59° SSE 12:22:27 10° ENE daylight
22 Jan - 13:54:54 10° W 13:59:29 68° N 14:04:09 10° ENE daylight
22 Jan - 15:36:41 10° WNW 15:41:21 77° NNE 15:46:03 10° E daylight
22 Jan - 17:18:22 10° WNW 17:22:49 44° SSW 17:27:15 10° SE visible
22 Jan - 19:02:41 10° WSW 19:03:31 10° SW 19:04:21 10° SW visible
23 Jan - 10:49:22 10° SSW 10:53:12 27° SE 10:57:05 10° E daylight
23 Jan - 12:29:49 10° WSW 12:34:23 86° SSE 12:39:03 10° ENE daylight
23 Jan - 14:11:35 10° W 14:16:10 65° N 14:20:48 10° E daylight
23 Jan - 15:53:16 10° WNW 15:57:56 83° SSW 16:02:37 10° ESE daylight
23 Jan - 17:35:14 10° W 17:39:08 27° SW 17:43:02 10° SSE visible
24 Jan - 09:27:51 10° SE 09:28:49 11° SE 09:29:48 10° ESE daylight
24 Jan - 11:05:12 10° SW 11:09:31 45° SSE 11:13:55 10° ENE daylight
24 Jan - 12:46:25 10° W 12:51:00 75° N 12:55:38 10° ENE daylight
24 Jan - 14:28:14 10° WNW 14:32:50 69° N 14:37:31 10° E daylight
24 Jan - 16:09:52 10° WNW 16:14:26 57° SSW 16:19:02 10° SE daylight
24 Jan - 17:52:38 10° W 17:55:20 15° SW 17:58:02 10° S visible
25 Jan - 09:41:41 10° S 09:44:57 20° SE 09:48:15 10° E daylight
25 Jan - 11:21:28 10° WSW 11:25:57 70° SSE 11:30:33 10° ENE daylight
25 Jan - 13:03:05 10° W 13:07:39 66° N 13:12:17 10° E daylight
25 Jan - 14:44:50 10° WNW 14:49:29 84° NNE 14:54:10 10° ESE daylight
25 Jan - 16:26:35 10° W 16:30:50 35° SW 16:35:06 10° SSE daylight
26 Jan - 09:57:09 10° SSW 10:01:12 34° SE 10:05:19 10° E daylight
26 Jan - 11:37:58 10° WSW 11:42:31 85° NNW 11:47:09 10° ENE daylight
26 Jan - 13:19:46 10° W 13:24:20 65° N 13:28:58 10° E daylight
26 Jan - 15:01:25 10° WNW 15:06:02 72° SSW 15:10:41 10° ESE daylight
26 Jan - 16:43:36 10° W 16:47:06 21° SW 16:50:37 10° S visible
27 Jan - 08:34:25 10° SSE 08:36:45 14° SE 08:39:06 10° ESE daylight
27 Jan - 10:13:11 10° SW 10:17:35 55° SSE 10:22:03 10° ENE daylight
27 Jan - 11:54:36 10° W 11:59:08 70° N 12:03:45 10° ENE daylight
27 Jan - 13:36:23 10° WNW 13:40:59 74° NNE 13:45:38 10° E daylight
27 Jan - 15:18:03 10° WNW 15:22:29 47° SSW 15:26:58 10° SE daylight
27 Jan - 17:01:40 10° WSW 17:03:15 12° SW 17:04:51 10° SSW visible
28 Jan - 08:49:17 10° SSW 08:52:56 25° SE 08:56:38 10° E daylight
28 Jan - 10:29:33 10° WSW 10:34:04 81° SSE 10:38:40 10° ENE daylight
28 Jan - 12:11:17 10° W 12:15:48 64° N 12:20:24 10° E daylight
28 Jan - 13:52:58 10° WNW 13:57:35 87° SSW 14:02:15 10° ESE daylight
28 Jan - 15:34:51 10° W 15:38:50 29° SW 15:42:50 10° SSE daylight
29 Jan - 09:05:02 10° SW 09:09:13 41° SSE 09:13:31 10° ENE daylight
29 Jan - 10:46:08 10° W 10:50:39 77° NNW 10:55:15 10° ENE daylight
29 Jan - 12:27:56 10° WNW 12:32:29 68° N 12:37:06 10° E daylight
29 Jan - 14:09:34 10° WNW 14:14:06 61° SSW 14:18:41 10° SE daylight
29 Jan - 15:52:07 10° W 15:55:03 17° SW 15:58:00 10° S daylight
30 Jan - 07:41:42 10° S 07:44:43 18° SE 07:47:45 10° E daylight
30 Jan - 09:21:14 10° WSW 09:25:40 66° SSE 09:30:10 10° ENE daylight
30 Jan - 11:02:48 10° W 11:07:18 66° N 11:11:53 10° ENE daylight
30 Jan - 12:44:32 10° WNW 12:49:07 81° NNE 12:53:46 10° ESE daylight
30 Jan - 14:26:15 10° W 14:30:31 38° SSW 14:34:49 10° SE daylight
31 Jan - 07:57:01 10° SSW 08:00:56 31° SE 08:04:54 10° E daylight
31 Jan - 09:37:42 10° WSW 09:42:12 88° NNW 09:46:46 10° ENE daylight
31 Jan - 11:19:29 10° W 11:23:59 65° N 11:28:33 10° E daylight
31 Jan - 13:01:07 10° WNW 13:05:42 76° SSW 13:10:19 10° ESE daylight
31 Jan - 14:43:11 10° W 14:46:49 23° SW 14:50:27 10° SSE daylight
